Spokane, WA

5:56 AM PDT on March 27, 2017 (GMT -0700)
Spokane International

Weather History for KGEG - August, 2014

Change the Weather History Date:

Thursday, August 14, 2014

  Actual Average Record
Temperature  
Mean Temperature 69 °F 70 °F  
Max Temperature 77 °F 84 °F 101 °F (1992)
Min Temperature 61 °F 57 °F 42 °F (1895)
Degree Days  
Heating Degree Days 0 1  
Month to date heating degree days 0 9  
Since 1 June heating degree days 113 177  
Since 1 July heating degree days 7 41  
Cooling Degree Days 4 6  
Month to date cooling degree days 158 94  
Year to date cooling degree days 526 337  
Since 1 June cooling degree days 520 323  
Growing Degree Days 19 (Base 50)    
Moisture  
Dew Point 55 °F    
Average Humidity 65    
Maximum Humidity 84    
Minimum Humidity 46    
Precipitation  
Precipitation 0.00 in 0.02 in 0.96 in (1987)
Month to date precipitation 0.04 0.25  
Year to date precipitation 9.46 9.77  
Snow  
Snow 0.00 in 0.00 in 0.00 in (2002)
Month to date snowfall 0.0 0.0  
Since 1 June snowfall 0.0 0.0  
Since 1 July snowfall 0.0 0.0  
Snow Depth 0.00 in    
Sea Level Pressure  
Sea Level Pressure 29.95 in    
Wind  
Wind Speed 6 mph (South)    
Max Wind Speed 16 mph    
Max Gust Speed 20 mph    
Visibility 10 miles    
Events      
T = Trace of Precipitation, MM = Missing Value Source: NWS Daily Summary

Daily Weather History Graph

Daily Weather History Graph

Search for Another Location

Airport or City:

Trip Planner

Search our weather history database for the weather conditions in past years. The results will help you decide how hot, cold, wet, or windy it might be!

Date:

Astronomy

Aug. 14, 2014 Rise Set
Actual Time 5:44 AM PDT 8:03 PM PDT
Civil Twilight 5:10 AM PDT 8:37 PM PDT
Nautical Twilight 4:28 AM PDT 9:20 PM PDT
Astronomical Twilight 3:39 AM PDT 10:08 PM PDT
Moon 10:04 PM PDT (8/14) 10:50 AM PDT (8/14)
Length of Visible Light 15h 27m
Length of Day
14h 19m
Waning Gibbous, 78% of the Moon is Illuminated
Aug 14
Waning Gibbous
Aug 17
Last Quarter
Aug 25
New
Sep 2
First Quarter
Sep 8
Full

Hourly Weather History & Observations

Time (PDT) Temp. Dew Point Humidity Pressure Visibility Wind Dir Wind Speed Gust Speed Precip Events Conditions
12:53 AM 69.1 °F 53.1 °F 57% 29.88 in 10.0 mi South 4.6 mph - N/A   Overcast
1:53 AM 66.9 °F 55.0 °F 66% 29.88 in 10.0 mi SE 6.9 mph - N/A   Overcast
2:53 AM 66.0 °F 55.9 °F 70% 29.90 in 10.0 mi SSE 9.2 mph - N/A   Overcast
3:53 AM 64.9 °F 55.9 °F 73% 29.91 in 10.0 mi SSW 13.8 mph - N/A   Mostly Cloudy
4:53 AM 63.0 °F 54.0 °F 72% 29.93 in 10.0 mi South 6.9 mph - N/A   Mostly Cloudy
5:53 AM 61.0 °F 55.0 °F 81% 29.94 in 10.0 mi SSW 4.6 mph - N/A   Mostly Cloudy
6:53 AM 61.0 °F 55.9 °F 83% 29.96 in 10.0 mi South 10.4 mph - N/A   Overcast
7:53 AM 63.0 °F 55.0 °F 75% 29.96 in 10.0 mi West 9.2 mph - N/A   Mostly Cloudy
8:17 AM 64.0 °F 55.0 °F 73% 30.03 in 10.0 mi SSW 11.5 mph - N/A   Overcast
8:53 AM 63.0 °F 55.0 °F 75% 29.99 in 10.0 mi SSW 11.5 mph - N/A   Overcast
9:43 AM 63.0 °F 55.0 °F 75% 30.02 in 10.0 mi West 5.8 mph - N/A   Mostly Cloudy
9:53 AM 64.0 °F 54.0 °F 70% 29.99 in 10.0 mi Variable 4.6 mph - N/A   Overcast
10:53 AM 64.9 °F 54.0 °F 68% 30.00 in 10.0 mi South 4.6 mph - N/A   Overcast
11:53 AM 66.9 °F 55.0 °F 66% 30.00 in 10.0 mi SW 3.5 mph - N/A   Overcast
12:53 PM 69.1 °F 54.0 °F 58% 30.00 in 10.0 mi Calm Calm - N/A   Mostly Cloudy
1:53 PM 71.1 °F 54.0 °F 55% 29.99 in 10.0 mi NNW 4.6 mph - N/A   Mostly Cloudy
2:53 PM 73.9 °F 53.1 °F 48% 29.97 in 10.0 mi Calm Calm - N/A   Mostly Cloudy
3:53 PM 75.9 °F 54.0 °F 46% 29.95 in 10.0 mi ENE 10.4 mph - N/A   Mostly Cloudy
4:53 PM 75.9 °F 53.1 °F 45% 29.94 in 10.0 mi NE 8.1 mph - N/A   Mostly Cloudy
5:53 PM 73.9 °F 55.9 °F 53% 29.94 in 10.0 mi NNE 9.2 mph - N/A   Mostly Cloudy
6:53 PM 72.0 °F 55.0 °F 55% 29.93 in 10.0 mi NNE 9.2 mph - N/A   Mostly Cloudy
7:53 PM 72.0 °F 55.9 °F 57% 29.93 in 10.0 mi NNE 5.8 mph - N/A   Mostly Cloudy
8:53 PM 70.0 °F 57.0 °F 63% 29.96 in 10.0 mi NE 5.8 mph - N/A   Overcast
9:53 PM 68.0 °F 57.9 °F 70% 29.95 in 10.0 mi North 5.8 mph - N/A   Mostly Cloudy
10:53 PM 66.9 °F 59.0 °F 76% 29.95 in 10.0 mi NNE 4.6 mph - N/A   Mostly Cloudy
11:53 PM 66.9 °F 59.0 °F 76% 29.95 in 10.0 mi Calm Calm - N/A   Overcast